EW3941 Weather Reports


time (UTC)temp
C
wind
direction
speed
KPH
gust
KPH
rain 1hr
cm
rain 24hr
cm
rain mn
cm
humidity
%
barometer
mb
20260507125518 16 217 3.2 6.4 0.00 0.00 0.00 85 977.5
20260507124517 16 217 3.2 9.7 0.00 0.00 0.00 86 977.4
20260507123517 16 217 4.8 9.7 0.00 0.00 0.00 86 977.6
20260507121517 16 219 4.8 9.7 0.00 0.00 0.00 86 977.6
20260507120517 16 221 3.2 9.7 0.00 0.00 0.00 86 977.8
20260507115516 16 212 3.2 9.7 0.00 0.00 0.00 86 977.9
20260507114516 16 231 3.2 6.4 0.00 0.00 0.00 86 977.9
20260507113516 16 0.0 0.0 0.00 0.00 0.00 87 978.1
20260507112517 17 0.0 0.0 0.00 0.00 0.00 87 978.2
20260507111516 17 0.0 0.0 0.00 0.00 0.00 87 978.3
20260507110516 17 0.0 0.0 0.00 0.00 0.00 87 978.4
20260507105516 17 0.0 0.0 0.00 0.00 0.00 88 978.4
20260507104516 17 0.0 0.0 0.00 0.00 0.00 88 978.3
20260507103515 17 0.0 0.0 0.00 0.00 0.00 88 978.4
20260507102516 17 0.0 0.0 0.00 0.00 0.00 88 978.4
20260507101536 18 0.0 0.0 0.00 0.00 0.00 88 978.5
20260507100516 18 0.0 0.0 0.00 0.00 0.00 88 978.6
20260507095516 18 0.0 0.0 0.00 0.00 0.00 89 978.6
20260507094516 18 0.0 0.0 0.00 0.00 0.00 89 978.7
20260507093535 18 0.0 0.0 0.00 0.00 0.00 89 978.8
20260507092556 18 0.0 0.0 0.00 0.00 0.00 89 978.8
20260507091516 18 0.0 0.0 0.00 0.00 0.00 89 978.9
20260507090516 18 0.0 0.0 0.00 0.00 0.00 89 979.0
20260507085536 18 0.0 0.0 0.00 0.00 0.00 89 979.1
20260507084518 18 0.0 0.0 0.00 0.00 0.00 88 979.1
20260507083537 18 0.0 0.0 0.00 0.00 0.00 88 979.1
20260507082517 18 0.0 0.0 0.00 0.00 0.00 88 979.1
20260507081517 19 0.0 0.0 0.00 0.00 0.00 88 979.1
20260507080517 19 0.0 0.0 0.00 0.00 0.00 88 979.0
20260507075517 20 0.0 0.0 0.00 0.00 0.00 88 979.0
20260507074516 20 0.0 0.0 0.00 0.00 0.00 88 979.0
20260507073516 20 0.0 0.0 0.00 0.00 0.00 88 978.9
20260507072537 20 0.0 0.0 0.00 0.00 0.00 88 978.7
20260507071537 21 0.0 0.0 0.00 0.00 0.00 88 978.5
20260507070516 21 0.0 0.0 0.00 0.00 0.00 88 978.4
20260507065517 21 0.0 0.0 0.00 0.00 0.00 88 978.2
20260507064516 21 0.0 0.0 0.00 0.00 0.00 88 978.1
20260507063516 21 0.0 6.4 0.00 0.00 0.00 89 977.9
20260507062516 21 0.0 6.4 0.00 0.00 0.00 89 977.8
20260507061516 21 0.0 0.0 0.00 0.00 0.00 89 977.8
20260507060537 21 0.0 4.8 0.00 0.00 0.00 89 977.6
20260507055517 21 124 0.0 4.8 0.00 0.00 0.00 89 977.5
20260507054516 21 0.0 0.0 0.00 0.00 0.00 89 977.4
20260507053516 21 0.0 6.4 0.00 0.00 0.00 89 977.3
20260507052516 21 124 3.2 8.0 0.00 0.00 0.00 89 977.2
20260507051517 21 124 3.2 11.3 0.00 0.00 0.00 89 977.0
20260507050516 21 148 4.8 9.7 0.00 0.00 0.00 89 976.9
20260507045517 21 126 3.2 9.7 0.00 0.00 0.00 89 976.8
20260507044519 22 103 1.6 8.0 0.00 0.00 0.00 89 976.8
20260507043517 22 103 0.0 8.0 0.00 0.00 0.00 89 976.6
20260507042517 22 104 3.2 8.0 0.00 0.00 0.00 88 976.4
20260507041538 22 107 3.2 9.7 0.00 0.00 0.00 87 976.3
20260507040538 22 100 4.8 12.9 0.00 0.00 0.00 87 976.2
20260507035538 22 107 3.2 14.5 0.00 0.00 0.00 86 976.1
20260507034517 22 103 4.8 12.9 0.00 0.00 0.00 85 976.0
20260507033517 23 107 4.8 8.0 0.00 0.00 0.00 85 975.9
20260507032517 23 117 3.2 14.5 0.00 0.00 0.00 85 975.8
20260507031517 23 104 4.8 14.5 0.00 0.00 0.00 85 975.8
20260507030538 23 72 4.8 14.5 0.00 0.00 0.00 84 975.8
20260507025517 23 79 6.4 14.5 0.00 0.00 0.00 84 975.7
20260507024516 23 98 6.4 12.9 0.00 0.00 0.00 84 975.7
20260507023516 23 96 6.4 16.1 0.00 0.00 0.00 83 975.7
20260507022516 23 77 4.8 16.1 0.00 0.00 0.00 82 975.7
20260507021516 24 99 4.8 14.5 0.00 0.00 0.00 82 975.7
20260507020516 24 94 4.8 12.9 0.00 0.00 0.00 81 975.7
20260507015517 25 67 4.8 14.5 0.00 0.00 0.00 80 975.7
20260507014536 25 70 6.4 14.5 0.00 0.00 0.00 78 975.8
20260507013516 26 92 4.8 14.5 0.00 0.00 0.00 78 975.7
20260507012516 26 59 4.8 14.5 0.00 0.00 0.00 77 975.6
20260507011516 26 45 6.4 14.5 0.00 0.00 0.00 72 975.7
20260507010516 27 90 6.4 16.1 0.00 0.00 0.00 71 975.7
20260507005516 26 100 6.4 16.1 0.00 0.00 0.00 75 975.7
20260507004517 27 83 4.8 14.5 0.00 0.00 0.00 73 975.7
20260507003517 27 57 4.8 12.9 0.00 0.00 0.00 72 975.7
20260507002517 27 106 6.4 12.9 0.00 0.00 0.00 72 975.8
20260507001517 26 110 6.4 14.5 0.00 0.00 0.00 71 976.0
20260507000517 26 89 6.4 17.7 0.00 0.00 0.00 75 976.0
20260506235517 27 99 8.0 17.7 0.00 0.00 0.00 74 976.0
20260506234516 27 53 8.0 19.3 0.00 0.00 0.00 72 976.1
20260506233516 27 74 8.0 19.3 0.00 0.00 0.00 66 976.3
20260506232516 27 107 8.0 14.5 0.00 0.00 0.00 65 976.5
20260506231516 27 109 6.4 14.5 0.00 0.00 0.00 67 976.5
20260506230516 27 110 6.4 12.9 0.00 0.00 0.00 69 976.6
20260506225516 27 112 4.8 12.9 0.00 0.00 0.00 67 976.6
20260506224537 27 103 4.8 12.9 0.00 0.00 0.00 69 976.7
20260506223516 26 128 3.2 12.9 0.00 0.00 0.00 69 976.6
20260506222516 26 115 6.4 14.5 0.00 0.00 0.00 66 976.6
20260506221516 26 117 6.4 14.5 0.00 0.00 0.00 67 976.8
20260506220537 27 127 8.0 14.5 0.00 0.00 0.00 65 976.9
20260506215516 26 106 4.8 12.9 0.00 0.00 0.00 67 977.1
20260506214516 26 96 4.8 12.9 0.00 0.00 0.00 72 977.2
20260506213516 26 52 4.8 12.9 0.00 0.00 0.00 73 977.3
20260506212516 26 63 6.4 12.9 0.00 0.00 0.00 76 977.2
20260506211517 26 71 4.8 12.9 0.00 0.00 0.00 76 977.3
20260506210516 25 59 4.8 12.9 0.00 0.00 0.00 76 977.4
20260506205516 25 83 4.8 12.9 0.00 0.00 0.00 77 977.4
20260506204538 25 72 3.2 12.9 0.00 0.00 0.00 78 977.4
20260506203518 25 59 4.8 14.5 0.00 0.00 0.00 75 977.5
20260506202517 25 81 3.2 12.9 0.00 0.00 0.00 77 977.3
20260506201518 25 62 4.8 12.9 0.00 0.00 0.00 78 977.2
20260506200517 25 65 4.8 12.9 0.00 0.00 0.00 78 977.2
20260506195538 25 50 3.2 12.9 0.00 0.00 0.00 78 977.2
20260506194537 25 47 3.2 11.3 0.00 0.00 0.00 78 977.4
20260506193517 25 50 1.6 8.0 0.00 0.00 0.00 78 977.5
20260506192516 24 52 1.6 8.0 0.00 0.00 0.00 79 977.5
20260506191517 23 47 3.2 8.0 0.00 0.00 0.00 79 977.5
20260506190516 24 51 3.2 6.4 0.00 0.00 0.00 79 977.5
20260506185516 23 220 1.6 6.4 0.00 0.00 0.00 78 977.6
20260506184516 23 229 0.0 6.4 0.00 0.00 0.00 78 977.7
20260506183516 23 229 0.0 4.8 0.00 0.00 0.00 78 977.5
20260506182537 23 229 1.6 6.4 0.00 0.00 0.00 78 977.3
20260506181517 22 230 1.6 6.4 0.00 0.00 0.00 79 977.3
20260506180517 22 0.0 0.0 0.00 0.00 0.00 80 977.1
20260506175557 21 0.0 4.8 0.00 0.00 0.00 81 977.0
20260506174518 21 231 1.6 4.8 0.00 0.00 0.00 84 977.0
20260506173518 20 231 1.6 3.2 0.00 0.00 0.00 85 976.9
20260506172518 20 0.0 6.4 0.00 0.00 0.00 86 976.8
20260506171518 20 231 0.0 3.2 0.00 0.00 0.00 87 976.7
20260506170518 19 0.0 0.0 0.00 0.00 0.00 88 976.6
20260506165518 18 0.0 0.0 0.00 0.00 0.00 88 976.6
20260506164539 18 0.0 4.8 0.00 0.00 0.00 88 976.5
20260506163518 18 232 0.0 4.8 0.00 0.00 0.00 89 976.3
20260506162518 18 0.0 6.4 0.00 0.00 0.00 88 976.0
20260506161539 18 232 3.2 8.0 0.00 0.00 0.00 89 976.0
20260506160518 17 232 3.2 8.0 0.00 0.00 0.00 89 975.9
20260506155539 17 232 1.6 8.0 0.00 0.00 0.00 89 975.7
20260506154517 18 232 3.2 6.4 0.00 0.00 0.00 89 975.6
20260506153517 18 232 0.0 6.4 0.00 0.00 0.00 89 975.5
20260506152518 18 233 1.6 8.0 0.00 0.00 0.00 89 975.4
20260506151518 18 233 4.8 8.0 0.00 0.00 0.00 90 975.5
20260506150517 18 0.0 0.0 0.00 0.00 0.00 90 975.3
20260506145517 18 0.0 0.0 0.00 0.00 0.00 90 975.2
20260506144537 18 0.0 0.0 0.00 0.00 0.00 90 975.2
20260506143516 18 0.0 0.0 0.00 0.00 0.00 90 975.2
20260506142516 18 0.0 0.0 0.00 0.00 0.00 89 975.2
20260506141557 18 0.0 0.0 0.00 0.00 0.00 89 975.2
20260506140516 18 0.0 0.0 0.00 0.00 0.00 89 975.2
20260506135516 18 0.0 0.0 0.00 0.00 0.00 89 975.1
20260506134516 18 0.0 0.0 0.00 0.00 0.00 89 975.1
20260506133516 18 0.0 0.0 0.00 0.00 0.00 89 975.2
20260506132516 18 0.0 0.0 0.00 0.00 0.00 88 975.3
20260506131516 18 0.0 1.6 0.00 0.00 0.00 88 975.5
20260506130516 18 0.0 0.0 0.00 0.00 0.00 88 975.6